Погода в Ардатове

Россия / Республика Мордовия     54°50′47″N   46°14′28″E
темп.,
°C
ветер,
м/с
пор.,
м/с
влажн.,
%
обл.,
%
осадки,
мм/ч
давл.,
гПа
погр.,
м
11 мая, вт
вт1100:00+13ссв4129749 0.0 1021348
03:00+12ссв41295100 0.0 1022329
06:00+13ссв4893100 0.0 1023238
09:00+19всв4768100 0.0 1024550
12:00+22вюв5846100 0.0 10241670
15:00+22юв585193 0.0 10251528
18:00+18ююз4674100 0.0 1026217
21:00+14з228862 0.0 102733
12 мая, ср
ср1200:00+13сз119148 0.0 102710
03:00+13св23915 0.0 102636
06:00+14всв397852 0.0 1026232
09:00+19вюв61061100 0.0 1026969
12:00+21юв81151100 0.0 10261984
15:00+17вюв5126344 0.0 1026445
18:00+18вюв396449 0.0 1025375
21:00+15вюв347093 0.0 102553
13 мая, чт
чт1300:00+14в237281 0.0 102539
03:00+13в357462 0.0 102569
06:00+14вюв4117431 0.0 1025306
09:00+19вюв61257100 0.0 1024722
12:00+15вюв3981100 0.8 1024445
15:00+16вюв51481100 0.9 1023618
18:00+18юв5147885 0.0 1022638
21:00+16вюв5147921 0.0 1021325
14 мая, пт
пт1400:00+13юв413878 0.1 1021277
03:00+12юв348328 0.2 102162
06:00+14юв3882100 0.4 1021262
09:00+18ююв4565100 0.5 1021415
12:00+22ю5762100 0.0 1020919
15:00+24ююз475664 0.0 10201347
18:00+23ю236898 0.0 102080
21:00+18юв336983 0.0 101935
15 мая, сб
сб1500:00+16ююв4117326 0.0 1019206
03:00+15ююв310688 0.0 1019167
06:00+16ююв31365100 0.0 1019281
09:00+21ю51154100 0.0 1018391
12:00+25ю61144100 0.0 1018878
15:00+26ю6104299 0.0 10171264
18:00
21:00+18ююв4136332 0.0 1016234